Hub


Voltar

 INFORMAÇÕES METEOROLÓGICAS

METAR FOR SBGW


ADDS - METARS form results

(0235 UTC 26 May 2020)
Data provider http://aviationweather.gov/metar/data/
 
Forecast for: SBGW (GUARATINGUETA (M, BR)
Text: TAF SBGW 252100Z 2600/2612 25009KT 9999 FEW020 TN11/2608Z TX13/2611Z
Forecast period: 0000 to 1200 UTC 26 May 2020
Forecast type: FROM: standard forecast or significant change
Winds: from the WSW (250 degrees) at 10 MPH (9 knots; 4.6 m/s)
Visibility: 6 or more miles 10+ km)
Ceiling: at least 12,000 feet AGL
Clouds: few clouds at 2000 feet AGL
Weather: no significant weather forecast for this period
Text: PROB40 2607/2611 3000 BR BKN008 RMK PEI
Forecast period: 0700 to 1100 UTC 26 May 2020
Forecast type: PROBABLE: 40 percent likelihood of the following during this time
Visibility: 1.86 miles (2.99 km)
Ceiling: 800 feet AGL
Clouds: broken clouds at 800 feet AGL
Weather: BR  (mist)


 MAPA DO AEROPORTO


 INFORMAÇÕES DA PISTA

Pista 2 Tamanho da pista 5089 ft Largura da pista 98 ft
Elevação da pista 0 ft Ranhura da pista 0 ft Proa da pista 0
Pista 20 Tamanho da pista 5089 ft Largura da pista 98 ft
Elevação da pista 0 ft Ranhura da pista 0 ft Proa da pista 0

 FREQUÊNCIAS DO AEROPORTO

Tipo APP Nome GUARA APP Frequência 122.8 MHZ
Tipo TWR Nome GUARA TWR Frequência 125.9 MHZ

 AUXÍLIOS DE NAVEGAÇÃO PRÓXIMOS AO AEROPORTO

Tipo NDB Nome Guaratingueta Frequência 275 KHZ